DW8622 Weather Reports


Display with metric or nautical units.
time (UTC)temp
F
wind
direction
speed
MPH
gust
MPH
rain 1hr
in
rain 24hr
in
rain mn
in
humidity
%
barometer
mb
20260902113006 66 251 2.0 7.0 0.02 0.02 0.02 88 1019.8
20260902112006 66 253 4.0 9.0 0.02 0.02 0.02 87 1019.9
20260902111506 66 253 5.0 10.0 0.02 0.02 0.02 86 1019.9
20260902111005 67 260 5.0 10.0 0.02 0.02 0.02 84 1019.8
20260902110505 68 252 5.0 10.0 0.00 0.00 0.00 81 1019.9
20260902110007 69 241 4.0 10.0 0.00 0.00 0.00 78 1019.8
20260902105506 69 248 3.0 10.0 0.00 0.00 0.00 77 1019.7
20260902105006 69 250 3.0 10.0 0.00 0.00 0.00 77 1019.8
20260902104505 70 259 3.0 10.0 0.00 0.00 0.00 76 1019.7
20260902104005 70 257 4.0 11.0 0.00 0.00 0.00 75 1019.7
20260902103506 71 247 5.0 11.0 0.00 0.00 0.00 75 1019.6
20260902103005 72 240 4.0 11.0 0.00 0.00 0.00 73 1019.6
20260902102507 73 213 3.0 10.0 0.00 0.00 0.00 75 1019.7
20260902102005 72 217 4.0 10.0 0.00 0.00 0.00 75 1019.7
20260902101506 72 234 3.0 10.0 0.00 0.00 0.00 77 1019.9
20260902100505 70 205 4.0 9.0 0.00 0.00 0.00 81 1019.9
20260902100006 69 208 4.0 9.0 0.00 0.00 0.00 80 1019.8
20260902095506 69 212 3.0 10.0 0.00 0.00 0.00 81 1019.7
20260902095006 68 206 2.0 10.0 0.00 0.00 0.00 82 1019.7
20260902094006 68 217 4.0 10.0 0.00 0.00 0.00 81 1019.7
20260902093505 69 230 3.0 11.0 0.00 0.00 0.00 81 1019.7
20260902093006 69 229 3.0 11.0 0.00 0.00 0.00 81 1019.9
20260902092505 68 219 3.0 10.0 0.00 0.00 0.00 82 1019.8
20260902092007 69 213 3.0 9.0 0.00 0.00 0.00 82 1019.9
20260902091005 68 221 4.0 12.0 0.00 0.00 0.00 83 1019.8
20260902090507 68 226 4.0 11.0 0.00 0.00 0.00 83 1019.9
20260902090006 68 232 5.0 11.0 0.00 0.00 0.00 84 1019.7
20260902085505 67 238 5.0 11.0 0.00 0.00 0.00 84 1019.7
20260902085007 67 230 4.0 11.0 0.00 0.00 0.00 84 1019.7
20260902084505 66 217 4.0 11.0 0.00 0.00 0.00 86 1019.6
20260902084006 66 221 3.0 9.0 0.00 0.00 0.00 85 1019.6
20260902083506 65 216 3.0 9.0 0.00 0.00 0.00 86 1019.5
20260902083006 65 210 3.0 9.0 0.00 0.00 0.00 85 1019.4
20260902082006 65 207 2.0 10.0 0.00 0.00 0.00 86 1019.3
20260902081506 65 214 2.0 8.0 0.00 0.00 0.00 86 1019.2
20260902081005 65 211 3.0 8.0 0.00 0.00 0.00 86 1019.3
20260902080507 64 212 3.0 10.0 0.00 0.00 0.00 86 1019.3
20260902080005 64 217 3.0 10.0 0.00 0.00 0.00 86 1019.3
20260902075506 64 219 3.0 9.0 0.00 0.00 0.00 86 1019.2
20260902075005 64 217 3.0 10.0 0.00 0.00 0.00 87 1019.2
20260902074006 64 208 2.0 10.0 0.00 0.00 0.00 87 1019.2
20260902073506 63 201 2.0 10.0 0.00 0.00 0.00 88 1019.1
20260902073005 62 208 1.0 8.0 0.00 0.00 0.00 88 1018.9
20260902072505 62 196 1.0 6.0 0.00 0.00 0.00 89 1019.0
20260902072005 62 190 2.0 7.0 0.00 0.00 0.00 89 1019.0
20260902071505 62 191 2.0 7.0 0.00 0.00 0.00 89 1018.9
20260902071006 61 188 2.0 6.0 0.00 0.00 0.00 89 1019.0
20260902070506 61 192 2.0 6.0 0.00 0.00 0.00 89 1018.9
20260902070007 61 193 2.0 8.0 0.00 0.00 0.00 89 1019.0
20260902065006 61 207 2.0 8.0 0.00 0.00 0.00 89 1018.9
20260902064506 61 211 2.0 8.0 0.00 0.00 0.00 89 1018.9
20260902063505 61 212 3.0 10.0 0.00 0.00 0.00 89 1018.8
20260902063006 61 211 3.0 9.0 0.00 0.00 0.00 89 1018.9
20260902062005 60 274 0.0 1.0 0.00 0.00 0.00 91 1018.9
20260902061506 60 0 0.0 0.0 0.00 0.00 0.00 91 1018.9
20260902061005 59 0 0.0 0.0 0.00 0.00 0.00 91 1018.9
20260902060005 58 0 0.0 0.0 0.00 0.00 0.00 92 1018.9
20260902055506 58 0 0.0 0.0 0.00 0.00 0.00 92 1018.8
20260902055005 58 0 0.0 0.0 0.00 0.00 0.00 92 1018.8
20260902054505 58 0 0.0 0.0 0.00 0.00 0.00 92 1018.7
20260902054006 58 0 0.0 0.0 0.00 0.00 0.00 92 1018.8
20260902053506 58 0 0.0 0.0 0.00 0.00 0.00 92 1018.7
20260902053005 58 0 0.0 0.0 0.00 0.00 0.00 92 1018.7
20260902052505 58 0 0.0 0.0 0.00 0.00 0.00 91 1018.7
20260902052006 58 0 0.0 0.0 0.00 0.00 0.00 91 1018.7
20260902051507 58 0 0.0 0.0 0.00 0.00 0.00 91 1018.7
20260902051006 58 0 0.0 0.0 0.00 0.00 0.00 91 1018.7
20260902050008 58 0 0.0 0.0 0.00 0.00 0.00 91 1018.6
20260902045506 58 163 0.0 1.0 0.00 0.00 0.00 91 1018.6
20260902045005 58 163 0.0 1.0 0.00 0.00 0.00 91 1018.6
20260902044506 58 0 0.0 0.0 0.00 0.00 0.00 91 1018.6
20260902043505 58 0 0.0 0.0 0.00 0.00 0.00 90 1018.6
20260902043006 58 0 0.0 0.0 0.00 0.00 0.00 90 1018.6
20260902042506 58 178 0.0 1.0 0.00 0.00 0.00 90 1018.6
20260902042005 58 178 0.0 1.0 0.00 0.00 0.00 90 1018.6
20260902041506 58 0 0.0 0.0 0.00 0.00 0.00 90 1018.7
20260902041007 58 0 0.0 0.0 0.00 0.00 0.00 90 1018.6
20260902040006 59 0 0.0 0.0 0.00 0.00 0.00 89 1018.5
20260902035006 59 0 0.0 0.0 0.00 0.00 0.00 89 1018.7
20260902034506 59 0 0.0 0.0 0.00 0.00 0.00 89 1018.7
20260902034006 59 0 0.0 0.0 0.00 0.00 0.00 89 1018.7
20260902033006 59 189 0.0 1.0 0.00 0.00 0.00 89 1018.8
20260902032506 59 0 0.0 0.0 0.00 0.00 0.00 90 1018.9
20260902031506 59 0 0.0 0.0 0.00 0.00 0.00 90 1018.8
20260902030506 59 0 0.0 0.0 0.00 0.00 0.00 89 1018.9
20260902030006 59 0 0.0 0.0 0.00 0.00 0.00 89 1019.0
20260902025506 59 0 0.0 0.0 0.00 0.00 0.00 89 1018.9
20260902025006 59 0 0.0 0.0 0.00 0.00 0.00 88 1019.0
20260902024506 60 0 0.0 0.0 0.00 0.00 0.00 88 1019.0
20260902024006 60 0 0.0 0.0 0.00 0.00 0.00 88 1019.0
20260902023505 60 0 0.0 0.0 0.00 0.00 0.00 88 1018.9
20260902022507 60 0 0.0 0.0 0.00 0.00 0.00 89 1019.0
20260902022007 59 0 0.0 0.0 0.00 0.00 0.00 89 1019.0
20260902021506 60 0 0.0 0.0 0.00 0.00 0.00 89 1019.1
20260902020506 59 0 0.0 0.0 0.00 0.00 0.00 89 1019.1
20260902020006 59 0 0.0 0.0 0.00 0.00 0.00 89 1019.2
20260902015506 59 0 0.0 0.0 0.00 0.00 0.00 89 1019.2
20260902015005 59 0 0.0 0.0 0.00 0.00 0.00 89 1019.2
20260902014505 59 0 0.0 0.0 0.00 0.00 0.00 89 1019.2
20260902014006 59 0 0.0 0.0 0.00 0.00 0.00 89 1019.2
20260902013506 59 0 0.0 0.0 0.00 0.00 0.00 89 1019.2
20260902013005 59 0 0.0 0.0 0.00 0.00 0.00 89 1019.2
20260902012506 59 0 0.0 0.0 0.00 0.00 0.00 89 1019.2
20260902011505 59 0 0.0 0.0 0.00 0.00 0.00 89 1019.2
20260902011006 59 0 0.0 0.0 0.00 0.00 0.00 89 1019.3
20260902010006 59 0 0.0 0.0 0.00 0.00 0.00 89 1019.3
20260902005505 59 0 0.0 0.0 0.00 0.00 0.00 89 1019.3
20260902005006 58 0 0.0 0.0 0.00 0.00 0.00 89 1019.3
20260902004505 58 0 0.0 0.0 0.00 0.00 0.00 90 1019.4
20260902004005 58 0 0.0 0.0 0.00 0.00 0.00 90 1019.4
20260902003506 58 0 0.0 0.0 0.00 0.00 0.00 90 1019.5
20260902003006 58 0 0.0 0.0 0.00 0.00 0.00 90 1019.4
20260902002506 58 0 0.0 0.0 0.00 0.00 0.00 90 1019.4
20260902002006 58 0 0.0 0.0 0.00 0.00 0.00 90 1019.5
20260902001505 57 0 0.0 0.0 0.00 0.00 0.00 90 1019.5
20260902000506 57 0 0.0 0.0 0.00 0.00 0.00 90 1019.5
20260902000005 57 0 0.0 0.0 0.00 0.00 0.00 90 1019.5
20260901235507 57 0 0.0 0.0 0.00 0.00 0.00 91 1019.5
20260901235006 57 0 0.0 0.0 0.00 0.00 0.00 90 1019.5
20260901234007 57 0 0.0 0.0 0.00 0.00 0.00 90 1019.6
20260901233505 57 0 0.0 0.0 0.00 0.00 0.00 90 1019.6
20260901233006 57 0 0.0 0.0 0.00 0.00 0.00 90 1019.6
20260901232506 57 0 0.0 0.0 0.00 0.00 0.00 90 1019.6
20260901232005 57 0 0.0 0.0 0.00 0.00 0.00 91 1019.6
20260901231505 57 0 0.0 0.0 0.00 0.00 0.00 91 1019.8
20260901231005 57 0 0.0 0.0 0.00 0.00 0.00 91 1019.9
20260901230506 57 0 0.0 0.0 0.00 0.00 0.00 91 1019.8
20260901230006 57 0 0.0 0.0 0.00 0.00 0.00 90 1020.0
20260901225506 57 0 0.0 0.0 0.00 0.00 0.00 90 1019.9
20260901225006 57 0 0.0 0.0 0.00 0.00 0.00 89 1020.0
20260901224505 57 0 0.0 0.0 0.00 0.00 0.00 90 1020.0
20260901224005 58 0 0.0 0.0 0.00 0.00 0.00 89 1020.0
20260901223505 58 0 0.0 0.0 0.00 0.00 0.00 89 1019.9
20260901222006 58 0 0.0 0.0 0.00 0.02 0.00 88 1019.9
20260901221006 59 0 0.0 0.0 0.00 0.02 0.00 87 1019.9
20260901220506 59 0 0.0 0.0 0.00 0.02 0.00 88 1019.9
20260901220006 58 0 0.0 0.0 0.00 0.02 0.00 88 1019.8
20260901215506 59 0 0.0 0.0 0.00 0.02 0.02 88 1019.8
20260901215006 59 0 0.0 0.0 0.00 0.02 0.02 87 1019.9
20260901214506 59 0 0.0 0.0 0.00 0.02 0.02 87 1019.9
20260901214006 59 0 0.0 0.0 0.00 0.02 0.02 87 1019.9
20260901213005 60 0 0.0 0.0 0.00 0.02 0.02 86 1019.7
20260901212506 60 0 0.0 0.0 0.00 0.02 0.02 85 1019.6
20260901212006 60 0 0.0 0.0 0.00 0.02 0.02 85 1020.0
20260901211506 60 0 0.0 0.0 0.00 0.02 0.02 85 1020.1
20260901211006 60 0 0.0 0.0 0.00 0.02 0.02 85 1020.2
20260901210505 60 0 0.0 0.0 0.00 0.02 0.02 85 1020.3
20260901210006 60 0 0.0 0.0 0.00 0.02 0.02 84 1020.3
20260901205005 60 0 0.0 0.0 0.00 0.02 0.02 84 1020.4
20260901204506 60 0 0.0 0.0 0.00 0.02 0.02 84 1020.4
20260901204006 60 0 0.0 0.0 0.00 0.02 0.02 84 1020.3
20260901203505 60 0 0.0 0.0 0.00 0.02 0.02 84 1020.3
20260901203006 60 0 0.0 0.0 0.00 0.02 0.02 84 1020.3
20260901202005 60 0 0.0 0.0 0.00 0.02 0.02 83 1020.3
20260901201006 60 0 0.0 0.0 0.00 0.02 0.02 83 1020.2
20260901200507 60 0 0.0 0.0 0.00 0.02 0.02 82 1020.2
20260901200005 60 0 0.0 0.0 0.00 0.02 0.02 82 1020.2
20260901195506 60 0 0.0 0.0 0.00 0.02 0.02 81 1020.2
20260901195006 60 0 0.0 0.0 0.00 0.02 0.02 81 1020.2
20260901194505 60 0 0.0 0.0 0.00 0.02 0.02 80 1020.3
20260901193506 60 0 0.0 0.0 0.00 0.02 0.02 80 1020.0
20260901193006 61 0 0.0 0.0 0.00 0.02 0.02 79 1020.0
20260901192007 61 0 0.0 0.0 0.00 0.02 0.02 78 1019.9
20260901191506 62 0 0.0 0.0 0.00 0.02 0.02 76 1019.9
20260901191006 62 0 0.0 0.0 0.00 0.02 0.02 76 1019.9
20260901190505 62 0 0.0 0.0 0.00 0.02 0.02 76 1020.0
20260901190005 62 0 0.0 0.0 0.00 0.02 0.02 76 1019.9
20260901185505 62 0 0.0 0.0 0.00 0.02 0.02 76 1019.9
20260901185005 62 0 0.0 0.0 0.00 0.02 0.02 76 1019.9
20260901184506 62 0 0.0 0.0 0.00 0.02 0.02 75 1019.9
20260901184006 62 0 0.0 0.0 0.00 0.02 0.02 75 1020.0
20260901183506 63 0 0.0 0.0 0.00 0.02 0.02 75 1019.9
20260901183006 63 0 0.0 0.0 0.00 0.02 0.02 75 1019.8
20260901182006 64 0 0.0 0.0 0.00 0.02 0.02 75 1019.7
20260901181505 64 0 0.0 0.0 0.00 0.02 0.02 74 1019.8
20260901181005 64 0 0.0 0.0 0.00 0.02 0.02 73 1019.8
20260901180506 65 0 0.0 0.0 0.00 0.02 0.02 72 1019.8
20260901180005 65 0 0.0 0.0 0.00 0.02 0.02 71 1019.7
20260901175505 66 0 0.0 0.0 0.00 0.02 0.02 69 1019.8
20260901175006 66 0 0.0 0.0 0.00 0.02 0.02 70 1019.8
20260901174505 66 0 0.0 0.0 0.00 0.02 0.02 70 1019.9
20260901174008 66 279 0.0 5.0 0.00 0.02 0.02 69 1019.9
20260901173506 66 284 1.0 5.0 0.00 0.02 0.02 69 1019.9
20260901173006 67 283 2.0 8.0 0.00 0.02 0.02 68 1020.0
20260901172505 67 281 4.0 8.0 0.00 0.02 0.02 65 1020.0
20260901172006 68 283 3.0 8.0 0.00 0.02 0.02 65 1020.0
20260901171505 68 277 3.0 10.0 0.00 0.02 0.02 64 1020.1
20260901171005 68 271 4.0 10.0 0.00 0.02 0.02 62 1020.0
20260901170507 68 269 4.0 10.0 0.00 0.02 0.02 62 1020.1
20260901170005 68 268 4.0 10.0 0.00 0.02 0.02 62 1020.1
20260901165006 69 264 3.0 7.0 0.00 0.02 0.02 62 1020.1
20260901164506 69 275 4.0 10.0 0.00 0.02 0.02 62 1020.0
20260901164005 69 280 4.0 10.0 0.00 0.02 0.02 62 1019.9
20260901163006 70 266 6.0 10.0 0.00 0.02 0.02 59 1019.9
20260901162506 70 257 6.0 12.0 0.00 0.02 0.02 59 1019.9
20260901162006 70 251 4.0 12.0 0.00 0.02 0.02 59 1019.8
20260901161005 70 270 4.0 10.0 0.00 0.02 0.02 60 1019.8
20260901160505 70 275 5.0 10.0 0.00 0.02 0.02 59 1019.9
20260901155505 70 266 6.0 11.0 0.00 0.02 0.02 57 1019.8
20260901154005 71 273 3.0 10.0 0.00 0.02 0.02 58 1019.7
20260901153505 71 275 4.0 10.0 0.00 0.02 0.02 56 1019.7
20260901152505 71 271 5.0 10.0 0.00 0.02 0.02 57 1019.7
20260901152006 72 264 4.0 10.0 0.00 0.02 0.02 53 1019.7
20260901151505 72 264 3.0 14.0 0.00 0.02 0.02 53 1019.6
20260901151006 72 272 4.0 14.0 0.00 0.02 0.02 52 1019.7
20260901145505 72 267 6.0 12.0 0.00 0.02 0.02 53 1019.6
20260901145005 73 267 6.0 12.0 0.00 0.02 0.02 51 1019.7
20260901144006 73 275 5.0 11.0 0.00 0.02 0.02 53 1019.6
20260901143505 73 276 5.0 13.0 0.00 0.02 0.02 53 1019.6
20260901143006 74 278 5.0 13.0 0.00 0.02 0.02 55 1019.6
20260901142506 74 272 5.0 11.0 0.00 0.02 0.02 54 1019.7
20260901142007 74 269 5.0 12.0 0.00 0.02 0.02 53 1019.7
20260901141506 74 278 4.0 14.0 0.00 0.02 0.02 56 1019.7
20260901141006 75 282 5.0 14.0 0.00 0.02 0.02 55 1019.7
20260901140505 74 280 5.0 13.0 0.00 0.02 0.02 55 1019.7
20260901135505 74 265 5.0 12.0 0.00 0.02 0.02 55 1019.8
20260901134505 75 281 6.0 14.0 0.00 0.02 0.02 54 1019.8
20260901134006 75 293 4.0 13.0 0.00 0.02 0.02 56 1019.7
20260901133505 74 290 5.0 13.0 0.00 0.02 0.02 59 1019.7
20260901133006 75 282 5.0 12.0 0.00 0.02 0.02 56 1019.7
20260901132506 76 278 4.0 10.0 0.00 0.02 0.02 54 1019.7
20260901132006 75 288 4.0 13.0 0.00 0.02 0.02 54 1019.7
20260901131505 75 287 5.0 13.0 0.00 0.02 0.02 59 1019.8
20260901131006 75 277 5.0 13.0 0.00 0.02 0.02 56 1019.7
20260901130506 76 276 4.0 10.0 0.00 0.02 0.02 56 1019.8
20260901130005 75 281 5.0 12.0 0.00 0.02 0.02 53 1019.7
20260901125506 74 280 6.0 12.0 0.00 0.02 0.02 55 1019.7
20260901125006 74 280 5.0 12.0 0.00 0.02 0.02 55 1019.7
20260901124506 74 275 5.0 13.0 0.00 0.02 0.02 59 1019.7
20260901123506 74 270 7.0 15.0 0.00 0.02 0.02 51 1019.7
20260901123006 74 269 7.0 15.0 0.00 0.02 0.02 51 1019.7
20260901122505 74 275 7.0 13.0 0.00 0.02 0.02 54 1019.8
20260901121506 72 282 6.0 14.0 0.00 0.02 0.02 59 1019.9
20260901121005 71 277 7.0 15.0 0.00 0.02 0.02 59 1019.9
20260901120505 72 274 8.0 15.0 0.00 0.02 0.02 58 1019.9
20260901115505 72 264 6.0 13.0 0.00 0.02 0.02 59 1019.9
20260901115005 70 271 6.0 12.0 0.00 0.02 0.02 58 1019.8
20260901113506 72 275 6.0 14.0 0.00 0.02 0.02 61 1019.8